| time (UTC) | temp F | wind direction | speed MPH | gust MPH | rain 1hr in | rain 24hr in | rain mn in | humidity % | barometer mb |
| 20260508004400 | 43 | 279 | 2.0 | 6.0 | 0.00 | 0.05 | 0.05 | 91 | 1005.0 |
| 20260508002855 | 43 | 279 | 2.0 | 6.0 | 0.00 | 0.05 | 0.05 | 90 | 1004.7 |
| 20260508001355 | 44 | 280 | 3.0 | 13.0 | 0.00 | 0.05 | 0.05 | 88 | 1004.5 |
| 20260507235857 | 44 | 261 | 3.0 | 13.0 | 0.00 | 0.05 | 0.05 | 86 | 1004.4 |
| 20260507234353 | 45 | 265 | 2.0 | 9.0 | 0.00 | 0.05 | 0.05 | 84 | 1004.3 |
| 20260507232851 | 45 | 262 | 3.0 | 14.0 | 0.00 | 0.05 | 0.05 | 83 | 1004.2 |
| 20260507231353 | 46 | 251 | 4.0 | 12.0 | 0.00 | 0.05 | 0.05 | 82 | 1004.0 |
| 20260507222852 | 48 | 261 | 4.0 | 11.0 | 0.00 | 0.05 | 0.05 | 80 | 1003.7 |
| 20260507221356 | 47 | 291 | 4.0 | 11.0 | 0.00 | 0.05 | 0.05 | 80 | 1003.6 |
| 20260507214346 | 48 | 275 | 3.0 | 11.0 | 0.00 | 0.05 | 0.05 | 78 | 1003.2 |
| 20260507212846 | 48 | 261 | 3.0 | 10.0 | 0.00 | 0.05 | 0.05 | 79 | 1003.2 |
| 20260507204346 | 49 | 294 | 6.0 | 14.0 | 0.00 | 0.05 | 0.05 | 77 | 1002.9 |
| 20260507202842 | 49 | 294 | 3.0 | 16.0 | 0.00 | 0.05 | 0.05 | 82 | 1002.8 |
| 20260507201343 | 47 | 279 | 2.0 | 8.0 | 0.00 | 0.05 | 0.05 | 86 | 1002.8 |
| 20260507195843 | 46 | 279 | 2.0 | 10.0 | 0.00 | 0.05 | 0.05 | 86 | 1002.7 |
| 20260507194341 | 46 | 285 | 6.0 | 12.0 | 0.00 | 0.05 | 0.05 | 86 | 1002.8 |
| 20260507185840 | 49 | 248 | 8.0 | 18.0 | 0.00 | 0.05 | 0.05 | 77 | 1002.6 |
| 20260507184341 | 51 | 300 | 6.0 | 18.0 | 0.00 | 0.05 | 0.05 | 77 | 1002.6 |
| 20260507182840 | 50 | 247 | 2.0 | 5.0 | 0.00 | 0.06 | 0.05 | 78 | 1002.4 |
| 20260507181339 | 50 | 247 | 1.0 | 7.0 | 0.00 | 0.06 | 0.05 | 80 | 1002.5 |
| 20260507175837 | 49 | 246 | 2.0 | 8.0 | 0.00 | 0.06 | 0.05 | 83 | 1002.6 |
| 20260507174336 | 49 | 219 | 1.0 | 6.0 | 0.00 | 0.06 | 0.05 | 87 | 1002.8 |
| 20260507172834 | 48 | 215 | 2.0 | 9.0 | 0.00 | 0.06 | 0.05 | 90 | 1003.0 |
| 20260507171335 | 47 | 198 | 1.0 | 6.0 | 0.01 | 0.07 | 0.05 | 92 | 1003.1 |
| 20260507165836 | 47 | 275 | 1.0 | 8.0 | 0.02 | 0.08 | 0.05 | 93 | 1003.2 |
| 20260507164335 | 47 | 277 | 2.0 | 11.0 | 0.05 | 0.09 | 0.05 | 93 | 1003.2 |
| 20260507162835 | 47 | 229 | 2.0 | 6.0 | 0.05 | 0.09 | 0.05 | 93 | 1003.3 |
| 20260507161334 | 47 | 188 | 1.0 | 9.0 | 0.04 | 0.09 | 0.04 | 92 | 1003.5 |
| 20260507155835 | 47 | 265 | 0.0 | 1.0 | 0.03 | 0.09 | 0.03 | 92 | 1003.5 |
| 20260507154337 | 47 | 265 | 0.0 | 3.0 | 0.00 | 0.08 | 0.00 | 92 | 1003.6 |
| 20260507152833 | 46 | 265 | 0.0 | 3.0 | 0.00 | 0.09 | 0.00 | 92 | 1003.7 |
| 20260507151333 | 46 | 265 | 0.0 | 3.0 | 0.00 | 0.11 | 0.00 | 92 | 1003.9 |
| 20260507145832 | 46 | 265 | 1.0 | 4.0 | 0.00 | 0.13 | 0.00 | 91 | 1004.0 |
| 20260507144332 | 46 | 265 | 1.0 | 6.0 | 0.00 | 0.15 | 0.00 | 92 | 1003.9 |
| 20260507141332 | 46 | 265 | 1.0 | 7.0 | 0.00 | 0.17 | 0.00 | 92 | 1004.2 |
| 20260507135830 | 45 | 264 | 2.0 | 6.0 | 0.00 | 0.18 | 0.00 | 93 | 1004.3 |
| 20260507132834 | 45 | 264 | 1.0 | 7.0 | 0.00 | 0.19 | 0.00 | 93 | 1004.2 |
| 20260507131333 | 45 | 264 | 1.0 | 4.0 | 0.00 | 0.19 | 0.00 | 93 | 1004.2 |
| 20260507125830 | 45 | 264 | 1.0 | 6.0 | 0.00 | 0.20 | 0.00 | 93 | 1004.2 |
| 20260507124329 | 45 | 263 | 1.0 | 6.0 | 0.00 | 0.20 | 0.00 | 94 | 1004.2 |
| 20260507122834 | 44 | 264 | 2.0 | 11.0 | 0.00 | 0.21 | 0.00 | 93 | 1004.3 |
| 20260507115823 | 44 | 221 | 2.0 | 5.0 | 0.00 | 0.23 | 0.00 | 93 | 1004.3 |
| 20260507114321 | 44 | 221 | 1.0 | 5.0 | 0.00 | 0.25 | 0.00 | 93 | 1004.3 |
| 20260507111321 | 44 | 219 | 1.0 | 5.0 | 0.00 | 0.26 | 0.00 | 93 | 1004.3 |
| 20260507105824 | 44 | 219 | 1.0 | 6.0 | 0.00 | 0.26 | 0.00 | 93 | 1004.4 |
| 20260507104320 | 44 | 265 | 1.0 | 7.0 | 0.00 | 0.26 | 0.00 | 93 | 1004.4 |
| 20260507102821 | 44 | 275 | 1.0 | 4.0 | 0.00 | 0.26 | 0.00 | 93 | 1004.4 |
| 20260507101321 | 44 | 275 | 1.0 | 6.0 | 0.00 | 0.26 | 0.00 | 93 | 1004.3 |
| 20260507095819 | 44 | 275 | 0.0 | 2.0 | 0.00 | 0.26 | 0.00 | 92 | 1004.0 |
| 20260507094319 | 44 | 275 | 0.0 | 3.0 | 0.00 | 0.26 | 0.00 | 93 | 1004.1 |
| 20260507092818 | 44 | 275 | 0.0 | 3.0 | 0.00 | 0.26 | 0.00 | 93 | 1004.3 |
| 20260507091311 | 44 | 275 | 1.0 | 6.0 | 0.00 | 0.26 | 0.00 | 93 | 1004.4 |
| 20260507082807 | 44 | 275 | 1.0 | 4.0 | 0.00 | 0.26 | 0.00 | 93 | 1004.7 |
| 20260507081306 | 44 | 275 | 0.0 | 2.0 | 0.00 | 0.26 | 0.00 | 93 | 1004.6 |
| 20260507075803 | 44 | 275 | 0.0 | 0.0 | 0.00 | 0.26 | 0.00 | 93 | 1004.4 |
| 20260507074303 | 44 | 275 | 0.0 | 0.0 | 0.00 | 0.26 | 0.00 | 93 | 1004.5 |
| 20260507072803 | 44 | 275 | 0.0 | 0.0 | 0.00 | 0.26 | 0.00 | 93 | 1004.5 |
| 20260507071301 | 44 | 275 | 0.0 | 0.0 | 0.00 | 0.26 | 0.00 | 93 | 1004.6 |
| 20260507065758 | 44 | 275 | 0.0 | 0.0 | 0.00 | 0.26 | 0.00 | 94 | 1004.7 |
| 20260507055750 | 43 | 275 | 1.0 | 3.0 | 0.00 | 0.26 | 0.00 | 94 | 1005.2 |
| 20260507054250 | 43 | 275 | 1.0 | 4.0 | 0.00 | 0.26 | 0.00 | 94 | 1005.3 |
| 20260507051250 | 43 | 275 | 0.0 | 2.0 | 0.00 | 0.26 | 0.00 | 93 | 1005.6 |
| 20260507045750 | 43 | 275 | 0.0 | 0.0 | 0.00 | 0.26 | 0.00 | 93 | 1005.8 |
| 20260507044252 | 43 | 275 | 0.0 | 1.0 | 0.00 | 0.26 | 0.00 | 93 | 1005.7 |
| 20260507042749 | 43 | 275 | 0.0 | 3.0 | 0.00 | 0.26 | 0.00 | 93 | 1005.6 |
| 20260507041248 | 44 | 275 | 1.0 | 6.0 | 0.00 | 0.26 | 0.00 | 93 | 1005.7 |
| 20260507035748 | 44 | 275 | 2.0 | 8.0 | 0.00 | 0.26 | 0.26 | 93 | 1005.8 |
| 20260507032747 | 44 | 275 | 1.0 | 6.0 | 0.00 | 0.26 | 0.26 | 93 | 1006.2 |
| 20260507031251 | 44 | 275 | 1.0 | 4.0 | 0.00 | 0.26 | 0.26 | 93 | 1006.4 |
| 20260507025748 | 44 | 275 | 0.0 | 7.0 | 0.00 | 0.26 | 0.26 | 93 | 1006.4 |
| 20260507024248 | 44 | 275 | 1.0 | 6.0 | 0.00 | 0.26 | 0.26 | 93 | 1006.4 |
| 20260507022747 | 44 | 275 | 1.0 | 6.0 | 0.00 | 0.26 | 0.26 | 92 | 1006.4 |
| 20260507021241 | 44 | 276 | 2.0 | 4.0 | 0.00 | 0.26 | 0.26 | 93 | 1006.4 |
| 20260507015742 | 44 | 275 | 1.0 | 4.0 | 0.00 | 0.26 | 0.26 | 93 | 1006.3 |
| 20260507014243 | 45 | 276 | 0.0 | 4.0 | 0.00 | 0.26 | 0.26 | 92 | 1006.3 |
| 20260507011241 | 45 | 276 | 0.0 | 3.0 | 0.00 | 0.28 | 0.26 | 92 | 1006.3 |
| 20260507005740 | 45 | 275 | 0.0 | 0.0 | 0.00 | 0.29 | 0.26 | 92 | 1006.5 |